Location: Cannifist
(18.2333°N, 63.0167°W)
Time: 15:27:14
(UTC+00:00)

Cosmos 44 - Pass Details

Date: 27 February 2020
Orbit: 594 x 767 km, 65.1° (Epoch: 31 March)

Event Time Altitude Azimuth Distance (km) Brightness Sun altitude
Rises 22:38:16 0° 347° (NNW) 2,900 6.6 -5.8°
Reaches altitude 10° 22:40:37 10° 355° (N) 2,016 5.7 -6.3°
Maximum altitude 22:44:54 40° 65° (ENE) 964 3.6 -7.3°
Drops below altitude 10° 22:49:24 10° 135° (SE) 2,115 5.4 -8.4°
Sets 22:51:54 0° 142° (SE) 3,060 6.3 -9.0°
